Volver al catálogo

NAVSTAR 69

USA 248

ActivoNavegaciónHEO
NORAD 39533·PAYLOAD·🇺🇸 United States

Lanzado Feb 21, 2014 desde Cape Canaveral Space Force Station

Loading…

Próximos Pases (próximas 24 horas)

TLE

ActualizadoSource: CelesTrak SupGP

Época: Sep 17, 2026, 16:38 UTC

1 39533C 14008A   26260.69312500  .00000000  00000+0  00000+0 0  2607
2 39533  53.6641 145.5449 0083598 231.5102 323.6870  2.00566107    16

Sigue NAVSTAR 69 en tiempo real con AllMySat

Download on the App Store